This demonstration page uses our WeatherBlox Daily Observations layout. Learn more.

Left ArrowRight Arrow

36.19886, -115.1175

Hourly Observations for October 6, 2022

Temp ( °F °C ) Dew Point ( °F °C ) Humidity (%) Winds ( mph kmh ) Pressure ( in mb ) Visibility ( mi km ) Precip ( " mm )
12:53 am 00:53 Clear 74 23.3 39 3.9 28 28 NW 6 9 30.01 1016 10 16 0.00 0.00
1:53 am 01:53 Clear 75 23.9 35 1.7 23 23 W 7 11 30.02 1017 10 16 0.00 0.00
2:53 am 02:53 Clear 72 22.2 38 3.3 29 29 W 3 6 30.02 1017 10 16 0.00 0.00
3:53 am 03:53 Clear 72 22.2 38 3.3 29 29 WNW 3 6 30.02 1017 10 16 0.00 0.00
4:53 am 04:53 Clear 70 21.1 38 3.3 31 31 W 5 7 30.04 1017 10 16 0.00 0.00
5:53 am 05:53 Clear 70 21.1 38 3.3 31 31 Calm 30.06 1018 10 16 0.00 0.00
6:53 am 06:53 Sunny 69 20.6 38 3.3 32 32 WNW 5 7 30.09 1019 10 16 0.00 0.00
7:53 am 07:53 Sunny 72 22.2 39 3.9 30 30 NNW 5 7 30.10 1019 10 16 0.00 0.00
8:53 am 08:53 Sunny 79 26.1 39 3.9 24 24 Calm 30.12 1020 10 16 0.00 0.00
9:53 am 09:53 Sunny 82 27.8 37 2.8 20 20 VRB 3 6 30.12 1020 10 16 0.00 0.00
10:53 am 10:53 Sunny 85 29.4 35 1.7 17 17 E 3 6 30.11 1020 10 16 0.00 0.00
11:53 am 11:53 Sunny 88 31.1 37 2.8 17 17 ESE 8 13 30.10 1019 10 16 0.00 0.00
12:53 pm 12:53 Sunny 88 31.1 37 2.8 17 17 SE 9 15 30.08 1019 10 16 0.00 0.00
1:53 pm 13:53 Sunny 90 32.2 35 1.7 14 14 undefined N/A 30.05 1018 10 16 0.00 0.00
2:53 pm 14:53 Sunny 91 32.8 35 1.7 14 14 SSE 5 7 30.03 1017 10 16 0.00 0.00
3:53 pm 15:53 Sunny 92 33.3 33 0.6 12 12 NE 9 15 30.01 1016 10 16 0.00 0.00
4:53 pm 16:53 Sunny 91 32.8 34 1.1 13 13 E 5 7 30.00 1016 10 16 0.00 0.00
5:53 pm 17:53 Sunny 89 31.7 33 0.6 14 14 E 8 13 30.01 1016 10 16 0.00 0.00
6:53 pm 18:53 Clear 88 31.1 33 0.6 14 14 Calm 30.01 1016 10 16 0.00 0.00
7:53 pm 19:53 Clear 85 29.4 34 1.1 16 16 W 3 6 30.02 1017 10 16 0.00 0.00
8:53 pm 20:53 Clear 80 26.7 37 2.8 21 21 WNW 5 7 30.04 1017 10 16 0.00 0.00
9:53 pm 21:53 Clear 79 26.1 36 2.2 21 21 NW 8 13 30.05 1018 10 16 0.00 0.00
10:53 pm 22:53 Clear 78 25.6 35 1.7 21 21 NW 7 11 30.06 1018 10 16 0.00 0.00
11:53 pm 23:53 Clear 76 24.4 34 1.1 22 22 NW 7 11 30.06 1018 10 16 0.00 0.00

Powered by AerisWeather